Sisseton, SD

1:16 PM CST on December 14, 2017 (GMT -0600)
Sisseton

Weather History for K8D3 - July, 2015

Change the Weather History Date:

Wednesday, July 1, 2015

  Actual Average Record
Temperature  
Mean Temperature 66 °F 70 °F  
Max Temperature 74 °F 81 °F 100 °F (1934)
Min Temperature 57 °F 58 °F 41 °F (2016)
Degree Days  
Heating Degree Days 0 1  
Month to date heating degree days 0 1  
Since 1 June heating degree days 14 63  
Since 1 July heating degree days 0 1  
Cooling Degree Days 1 5  
Month to date cooling degree days 1 5  
Year to date cooling degree days 142 122  
Since 1 June cooling degree days 125 99  
Growing Degree Days 16 (Base 50)    
Moisture  
Dew Point 60 °F    
Average Humidity 79    
Maximum Humidity 100    
Minimum Humidity 57    
Precipitation  
Precipitation 0.09 in 0.11 in 1.60 in (1978)
Month to date precipitation 0.09 0.11  
Year to date precipitation 9.12 10.83  
Sea Level Pressure  
Sea Level Pressure 29.92 in    
Wind  
Wind Speed 7 mph (SSE)    
Max Wind Speed 15 mph    
Max Gust Speed 19 mph    
T = Trace of Precipitation, MM = Missing Value Source: NWS Daily Summary

Daily Weather History Graph

Daily Weather History Graph

Search for Another Location

Airport or City:

Trip Planner

Search our weather history database for the weather conditions in past years. The results will help you decide how hot, cold, wet, or windy it might be!

Date:

Astronomy

Jul. 01, 2015 Rise Set
Actual Time 5:42 AM CDT 9:21 PM CDT
Civil Twilight 5:04 AM CDT 9:58 PM CDT
Nautical Twilight 4:13 AM CDT 10:49 PM CDT
Astronomical Twilight 3:05 AM CDT 11:57 PM CDT
Moon 8:48 PM CDT (7/1) 5:33 AM CDT (7/1)
Length of Visible Light 16h 54m
Length of Day
15h 38m
Full, 100% of the Moon is Illuminated
Jul 1
Full
Jul 1
Full
Jul 8
Last Quarter
Jul 15
New
Jul 23
First Quarter

Hourly Weather History & Observations

Time (CDT) Temp. Dew Point Humidity Pressure Visibility Wind Dir Wind Speed Gust Speed Precip Events Conditions
12:56 AM 61.0 °F 59.0 °F 93% 29.88 in - Calm Calm - N/A   Unknown
1:56 AM 60.1 °F 59.0 °F 96% 29.88 in - Calm Calm - N/A   Unknown
2:56 AM 61.0 °F 60.1 °F 97% 29.90 in - NNE 4.6 mph - 0.02 in   Unknown
3:56 AM 61.0 °F 61.0 °F 100% 29.90 in - WNW 4.6 mph - N/A   Unknown
4:56 AM 62.1 °F 61.0 °F 96% 29.88 in - SE 5.8 mph - 0.03 in   Unknown
5:56 AM 63.0 °F 62.1 °F 97% 29.88 in - South 3.5 mph - 0.03 in   Unknown
6:56 AM 63.0 °F 62.1 °F 97% 29.90 in - SSW 4.6 mph - N/A   Unknown
7:56 AM 63.0 °F 62.1 °F 97% 29.90 in - SSE 4.6 mph - N/A   Unknown
8:56 AM 64.0 °F 62.1 °F 93% 29.91 in - SSE 8.1 mph - 0.01 in   Unknown
9:56 AM 64.9 °F 61.0 °F 87% 29.92 in - South 10.4 mph - N/A   Unknown
10:56 AM 66.0 °F 61.0 °F 84% 29.92 in - South 9.2 mph - N/A   Unknown
11:56 AM 68.0 °F 61.0 °F 78% 29.93 in - South 10.4 mph - N/A   Unknown
12:56 PM 70.0 °F 61.0 °F 73% 29.93 in - SE 11.5 mph - N/A   Unknown
1:56 PM 71.1 °F 62.1 °F 73% 29.93 in - SSE 11.5 mph - N/A   Unknown
2:56 PM 73.0 °F 62.1 °F 68% 29.93 in - SSE 10.4 mph - N/A   Unknown
3:56 PM 72.0 °F 61.0 °F 68% 29.93 in - South 10.4 mph - N/A   Unknown
4:56 PM 73.9 °F 60.1 °F 62% 29.92 in - South 10.4 mph - N/A   Unknown
5:56 PM 73.0 °F 59.0 °F 61% 29.92 in - SSE 9.2 mph - N/A   Unknown
6:56 PM 73.0 °F 57.0 °F 57% 29.91 in - SSE 9.2 mph - N/A   Unknown
7:56 PM 70.0 °F 54.0 °F 57% 29.92 in - SSE 10.4 mph - N/A   Unknown
8:56 PM 66.0 °F 55.0 °F 68% 29.93 in - SSE 5.8 mph - N/A   Unknown
9:56 PM 62.1 °F 57.0 °F 84% 29.95 in - SSE 6.9 mph - N/A   Unknown
10:56 PM 61.0 °F 57.0 °F 87% 29.96 in - South 5.8 mph - N/A   Unknown
11:56 PM 59.0 °F 55.9 °F 90% 29.96 in - South 5.8 mph - N/A   Unknown